Regional Weather Roundup
Issued by NWS

Home | Current Version | Previous Version | Graphics & Text | Print | Product List | Glossary On
Versions: 1 2 3 4 5 6 7 8 9 10 11 12 13 14 15 16 17 18 19 20 21 22 23 24 25 26 27 28 29 30 31 32 33 34 35 36 37 38 39 40 41 42 43 44 45 46 47 48 49 50
000
ASUS43 KIND 230009
RWRIN

WEATHER ROUNDUP FOR INDIANA
NATIONAL WEATHER SERVICE INDIANAPOLIS IN
800 PM EDT FRI AUG 22 2014

NOTE: "FAIR" INDICATES FEW OR NO CLOUDS BELOW 12,000 FEET WITH NO
SIGNIFICANT WEATHER AND/OR OBSTRUCTIONS TO VISIBILITY.

* - STATION DOES NOT REPORT WEATHER SUCH AS PRECIPITATION OR FOG.

+ - STATION NOT QUALITY CONTROLLED BY THE NATIONAL WEATHER SERVICE.
    USE DATA WITH CAUTION...ESPECIALLY DEWPOINT AND RELATIVE
    HUMIDITY OBSERVATIONS.

INZ001>003-010>013-019-020-230100-
NORTHWEST INDIANA

CITY           SKY/WX    TMP DP  RH WIND       PRES   REMARKS
GARY /AIRPORT/ PTCLDY    84  72  65 W7        29.95R
KNOX *+        CLOUDY    80  73  79 W3        29.95S
LA PORTE +     CLOUDY    80  73  79 SW5       29.97R
6HR MIN TEMP:  78; 6HR MAX TEMP:  84;

MICHIGAN CITY+ PTCLDY    79  72  78 CALM      29.96S
MONTICELLO +   MOCLDY    80  74  82 CALM      29.96S
RENSSELAER +   PTCLDY    81  73  78 SW5       29.97S
VALPARAISO     CLOUDY    80  71  74 SW8       29.96S
6HR MIN TEMP:  77; 6HR MAX TEMP:  84;


$$

LMZ046-743>745-230100-
SOUTHERN LAKE MICHIGAN

STATION/POSITION TIME  TEMP WIND        PRES
                       AIR  DIR/SP/G
                 (UTC) (F)  (DEG/KT/KT) (MB)
MICHIGAN CITY    0000   78   20/  4/  5   N/A

$$

INZ004-005-014>016-021>024-230100-
NORTH CENTRAL INDIANA

CITY           SKY/WX    TMP DP  RH WIND       PRES   REMARKS
ELKHART        CLOUDY    82  73  74 SW6       29.96S
GOSHEN         CLOUDY    83  74  74 S3        29.96R
6HR MIN TEMP:  83; 6HR MAX TEMP:  87;

LOGANSPORT +   PTCLDY    79  72  78 SW3       29.97S
PERU/GRISSOM   PTCLDY    80  79  94 W5        29.97R
6HR MIN TEMP:  80; 6HR MAX TEMP:  82;

ROCHESTER +    PTCLDY    82  73  74 SW3       29.97S
SOUTH BEND     CLOUDY    82  73  74 W5        29.96S
6HR MIN TEMP:  81; 6HR MAX TEMP:  85;

WARSAW +       CLOUDY    81  73  78 W5        29.97R

$$

INZ006>009-017-018-025>027-230100-
NORTHEAST INDIANA

CITY           SKY/WX    TMP DP  RH WIND       PRES   REMARKS
ANGOLA *+      MOCLDY    81  72  74 CALM      29.97S
AUBURN +       PTCLDY    81  70  69 CALM      29.97S
FORT WAYNE     MOCLDY    78  73  84 W6        29.97R
6HR MIN TEMP:  78; 6HR MAX TEMP:  85;

HUNTINGTON +   MOCLDY    79  74  83 CALM      29.96S
6HR MIN TEMP:  78; 6HR MAX TEMP:  81;


$$

INZ028-029-035-036-043>045-051>053-230100-
WEST CENTRAL INDIANA

CITY           SKY/WX    TMP DP  RH WIND       PRES   REMARKS
GREENCASTLE +  MOCLDY    79  73  83 CALM      29.99S
LAFAYETTE      PTCLDY    80  73  79 W6        29.97R
6HR MIN TEMP:  77; 6HR MAX TEMP:  83;

TERRE HAUTE    MOCLDY    83  75  77 CALM      29.96F
6HR MIN TEMP:  82; 6HR MAX TEMP:  86;


$$

INZ030>032-037>040-046>048-054>057-064-065-230100-
CENTRAL INDIANA

CITY           SKY/WX    TMP DP  RH WIND       PRES   REMARKS
CP ATTERBURY + CLEAR     81  70  69 MISG      29.97S
FRANKFORT +    PTCLDY    81  74  79 CALM      30.00S
INDIANAPOLIS   MOCLDY    82  68  62 W7        29.97S
6HR MIN TEMP:  81; 6HR MAX TEMP:  86;

-EAGLE CREEK   PTCLDY    82  69  64 W5        29.97S
6HR MIN TEMP:  81; 6HR MAX TEMP:  86;

KOKOMO *+      PTCLDY    81  73  78 W5        29.97S
MARION +       MOCLDY    78  73  84 CALM      29.97F
MT COMFORT *+  CLEAR     81  70  69 CALM      29.97F
SHELBYVILLE    CLEAR     84  72  67 N3        29.96S
6HR MIN TEMP:  82; 6HR MAX TEMP:  87;

ZIONSVILLE +   PTCLDY    81  72  74 CALM      29.99R
6HR MIN TEMP:  81; 6HR MAX TEMP:  84;


$$

INZ033-034-041-042-049-050-058-059-230100-
EAST CENTRAL INDIANA

CITY           SKY/WX    TMP DP  RH WIND       PRES   REMARKS
MUNCIE         PTCLDY    79  72  79 NW3       29.97S
6HR MIN TEMP:  79; 6HR MAX TEMP:  84;


$$

INZ060-061-067>069-081>083-085>088-230100-
SOUTHWEST INDIANA

CITY           SKY/WX    TMP DP  RH WIND       PRES   REMARKS
EVANSVILLE     CLOUDY    87  75  67 CALM      29.96R HX  96
6HR MIN TEMP:  87; 6HR MAX TEMP:  91;

WASHINGTON +   MOCLDY    82  79  92 CALM      29.95F
6HR MIN TEMP:  82; 6HR MAX TEMP:  87;


$$

INZ062-063-066-070>080-084-089>092-230100-
SOUTH CENTRAL AND SOUTHEAST INDIANA

CITY           SKY/WX    TMP DP  RH WIND       PRES   REMARKS
BLOOMINGTON    PTCLDY    82  74  76 CALM      29.98R
6HR MIN TEMP:  82; 6HR MAX TEMP:  88;


$$




USA.gov is the U.S. government's official web portal to all federal, state and local government web resources and services.